Terminal Aerodrome Forecast
Issued by NWS

Home | Current Version | Previous Version | Text Only | Print | Product List | Glossary Off
Versions: 1 2 3 4 5 6 7 8 9 10 11 12

000
FTUS43 KIWX 301720
TAFSBN
TAF
KSBN 301720Z 3018/3118 30012G18KT P6SM SKC
     FM310100 27006KT P6SM SKC
     FM311600 26011G19KT P6SM SCT050=

USA.gov is the U.S. government's official web portal to all federal, state and local government web resources and services.